Location: �clusier
(49.9361°N, 2.7869°E)
Time: 07:49:45
(UTC+00:00)

USA 267 - Pass Details

Date: 16 June 2021
Orbit: 1102 x 1106 km, 123.0° (Epoch: 28 July)

Event Time Altitude Azimuth Distance (km) Brightness Sun altitude
Rises 20:28:34 0° 84° (E) 3,921 5.8 -4.2°
Reaches altitude 10° 20:31:07 10° 80° (E) 2,964 5.2 -4.5°
Maximum altitude 20:37:22 50° 7° (N) 1,381 4.2 -5.2°
Drops below altitude 10° 20:43:37 10° 295° (WNW) 2,969 6.8 -5.9°
Sets 20:46:10 0° 290° (WNW) 3,928 7.4 -6.2°
